The 9 - 20 metre wide asteroid 2013 LE7 will make a close pass (17.7 lunar distances, 0.04558 AU), travelling at 1.72 km/second, to the Earth on the 31st May 2018 @ 05:05 UT ±00:01.
Orbital elements:
2013 LE7 Earth MOID = 0.0330 AU
Epoch 2013 Apr. 18.0 TT = JDT 2456400.5 MPC
M 334.67349 (2000.0) P Q
n 0.78816470 Peri. 32.54052 -0.51864024 +0.85488413
a 1.1607127 Node 206.22596 -0.79088595 -0.48574292
e 0.1039462 Incl. 1.76578 -0.32482566 -0.18228258
P 1.25 H 27.1 G 0.15 U 7